Location: Palomar Observatory
(33.3560°N, 116.8630°W)
Time: 07:11:09
(UTC-07:00)

Iridium 57 - Visible Passes

Search period start: 31 May 2016 00:00
Search period end: 10 June 2016 00:00
Orbit: 776 x 779 km, 86.4° (Epoch: 30 May)

Date Brightness Start Highest point End Pass type
(mag) Time Alt. Az. Time Alt. Az. Time Alt. Az.
31 May 6.9 01:17:02 10° N 01:20:24 35° NE 01:20:24 35° NE visible
31 May 7.6 02:59:21 10° NW 03:00:52 14° WNW 03:00:52 14° WNW visible
01 Jun 7.5 00:44:10 10° NNE 00:46:53 21° NE 00:46:53 21° NE visible
01 Jun 7.1 02:24:34 10° NNW 02:27:21 24° NW 02:27:21 24° NW visible
02 Jun 8.0 00:12:26 10° NE 00:13:22 12° ENE 00:13:22 12° ENE visible
02 Jun 6.7 01:50:33 10° N 01:53:50 37° NNW 01:53:50 37° NNW visible
03 Jun 6.7 01:16:58 10° N 01:20:20 40° NNE 01:20:20 40° NNE visible
04 Jun 7.1 00:43:48 10° NNE 00:46:50 28° NE 00:46:50 28° NE visible
04 Jun 7.5 02:25:16 10° NW 02:27:18 17° WNW 02:27:18 17° WNW visible
05 Jun 7.7 00:11:13 10° NE 00:13:21 17° ENE 00:13:21 17° ENE visible
05 Jun 7.0 01:50:52 10° NNW 01:53:49 29° NW 01:53:49 29° NW visible
06 Jun 6.7 01:17:02 10° N 01:20:20 40° NNW 01:20:20 40° NNW visible
07 Jun 6.8 00:43:37 10° N 00:46:51 36° NNE 00:46:51 36° NNE visible
07 Jun 7.9 02:26:29 10° NW 02:27:19 12° WNW 02:27:19 12° WNW visible
08 Jun 7.3 00:10:38 10° NNE 00:13:23 23° NE 00:13:23 23° NE visible
08 Jun 7.4 01:51:23 10° NNW 01:53:51 21° NW 01:53:51 21° NW visible
08 Jun 7.9 23:38:30 10° NE 23:39:55 13° ENE 23:39:55 13° ENE visible
09 Jun 6.9 01:17:16 10° NNW 01:20:23 34° NW 01:20:23 34° NW visible
